Theta_e
270 272 271 270 270 271 268 267 263 268 266 271 272 274 275 280 281 280 281 283 282 282 284 285 286 287 287 287 289 290 289 287 287 287 287 287 286 286 286 286 286 286 286 285
265 271 271 269 271 271 271 270 270 270 269 276 278 279 277 277 278 279 279 278 280 281 283 284 285 286 286 287 287 288 287 287 286 286 286 286 286 285 285 285 285 284 285 282
261 269 267 259 268 270 270 270 266 265 270 275 272 276 272 275 276 278 278 275 279 281 282 283 284 286 286 286 287 286 287 287 286 286 286 285 284 283 283 283 284 282 281 281
262 260 257 268 273 273 271 272 272 272 273 275 273 278 279 278 277 276 274 275 280 281 282 283 285 286 286 286 285 286 287 287 286 286 285 284 284 283 283 283 283 282 282 281
263 261 266 269 271 270 268 269 274 273 274 276 277 276 276 277 279 275 274 277 279 282 282 284 285 287 286 285 284 286 286 286 286 286 285 284 283 283 284 283 283 282 282 282
266 260 257 268 273 276 275 266 275 275 275 275 275 270 270 274 276 276 276 276 279 281 283 283 285 285 283 282 283 285 286 286 287 286 286 285 285 284 284 284 284 283 282 282
265 263 265 273 275 274 264 266 275 276 276 275 272 272 273 274 277 274 277 277 276 280 281 282 285 283 280 281 282 286 287 286 286 286 286 286 285 284 283 283 282 282 282 282
265 263 261 274 274 268 273 276 276 276 277 276 276 277 275 276 275 276 274 273 276 280 281 283 282 280 279 280 284 286 286 286 286 286 286 285 284 283 282 282 282 281 281 280
268 266 274 275 271 273 273 275 276 277 278 277 277 276 277 278 277 278 278 279 279 278 281 282 282 279 279 279 280 283 284 286 285 284 285 285 284 282 282 282 282 281 281 281
271 274 275 276 277 276 277 277 279 280 279 279 277 278 278 278 279 280 280 279 278 278 279 279 281 279 278 277 278 280 285 285 285 284 283 283 284 283 283 282 282 282 282 282
271 274 275 276 276 278 279 279 280 279 278 279 278 278 279 279 279 280 279 279 276 277 278 278 278 277 273 275 276 278 283 283 283 284 284 283 284 283 283 284 285 284 284 284
269 275 275 275 277 279 278 278 279 278 275 278 278 278 278 278 279 278 277 275 276 276 274 274 274 275 273 271 273 276 280 281 283 283 283 283 283 282 287 286 287 288 288 286
275 278 277 278 278 278 278 278 278 277 277 275 278 276 276 277 275 274 272 271 272 271 271 270 272 273 272 268 270 274 279 279 280 281 282 281 282 282 281 283 287 288 288 288
270 272 274 275 272 274 276 276 275 274 273 273 273 270 271 272 270 268 270 269 266 268 265 266 269 270 271 270 267 272 277 280 278 280 281 282 282 282 282 281 280 280 285 286
267 267 268 269 270 269 268 268 266 268 269 270 268 269 267 270 268 269 267 265 265 266 264 266 267 268 269 269 270 272 275 278 279 277 279 281 281 282 282 281 281 280 279 284
262 262 261 261 262 262 262 262 261 263 263 264 265 264 266 268 267 267 264 264 263 263 264 265 265 266 267 268 270 274 276 276 279 279 279 279 280 280 280 280 281 280 280 279
257 260 261 260 259 259 258 258 258 260 261 261 262 264 267 266 268 267 265 265 265 264 264 263 263 266 267 268 270 277 277 277 279 279 279 279 279 279 279 279 278 275 275 279
261 261 260 257 257 258 259 258 257 258 259 260 264 266 264 265 266 264 264 265 266 264 262 262 263 267 267 269 272 274 273 273 272 272 272 272 272 273 272 272 272 271 271 273
259 259 259 259 257 257 259 259 260 261 262 263 262 261 262 262 262 262 262 262 261 262 261 262 267 266 266 271 271 271 270 270 270 269 269 269 269 269 269 268 268 268 268 268
259 256 255 257 256 254 259 260 260 261 261 262 263 262 260 260 261 260 260 258 259 260 262 263 265 265 267 268 270 269 268 267 267 267 267 267 267 266 266 267 266 266 266 266
256 254 254 254 257 258 259 259 260 260 260 260 260 259 258 258 258 260 260 258 260 263 263 263 263 265 266 266 267 266 266 266 265 265 265 264 264 264 264 264 264 264 264 264
252 252 254 256 258 259 258 259 259 259 259 259 259 259 259 258 259 258 258 259 261 263 262 262 263 264 264 265 264 264 263 263 263 263 262 262 262 261 260 261 261 261 261 260
251 253 257 258 258 258 258 257 257 257 256 256 257 257 257 257 258 258 256 259 261 261 261 263 263 263 263 262 262 261 260 260 260 259 259 259 259 259 258 258 257 257 257 257
251 256 258 259 259 258 256 257 257 257 257 257 257 257 258 258 257 259 259 260 260 260 261 262 263 264 261 260 259 259 259 258 258 258 258 257 256 256 256 255 255 254 254 254
257 258 259 259 259 258 258 258 258 258 257 257 257 258 258 258 257 257 259 259 261 259 258 261 263 261 259 258 258 257 257 257 256 255 255 255 254 254 253 252 251 251 250 250
257 258 258 258 258 259 258 259 258 258 258 257 257 258 258 259 259 259 259 259 258 258 257 257 257 257 257 256 255 254 254 254 254 253 252 251 249 249 249 249 249 249 248 247
259 259 259 258 258 258 258 258 257 256 258 257 256 257 257 258 258 258 257 257 256 256 256 255 255 255 253 253 253 252 251 251 252 250 248 248 248 247 247 247 247 247 247 247
Wind_Speed
10 10 9 13 14 12 10 9 8 25 15 17 14 19 13 21 15 16 12 12 14 15 15 13 13 12 9 10 10 6 6 6 7 7 8 9 9 9 10 10 9 8 9 7
9 9 11 17 16 16 17 16 14 20 25 11 14 12 8 9 14 20 16 6 12 15 15 14 13 13 12 11 10 7 7 8 7 8 11 11 11 13 12 12 10 11 9 9
10 9 5 9 8 15 12 14 9 15 22 8 8 8 5 7 9 15 8 5 10 15 13 14 15 14 14 13 10 10 9 8 9 11 12 12 11 11 12 12 11 9 8 9
7 3 13 10 11 12 14 12 10 13 16 15 12 10 9 8 9 7 6 6 11 13 14 14 13 15 14 11 10 10 11 10 10 11 11 11 11 12 10 10 12 10 9 8
9 10 14 14 11 9 9 18 15 18 14 11 12 9 5 4 3 7 6 7 8 12 12 14 16 14 14 13 11 11 13 12 12 13 13 13 14 13 11 11 9 9 8 10
10 10 12 13 19 14 15 16 12 13 15 16 7 6 6 5 7 8 7 7 9 12 12 11 16 13 15 14 12 13 13 13 13 14 15 16 15 14 11 11 10 8 8 9
17 15 10 20 16 3 9 21 12 15 10 6 5 7 7 5 8 5 7 8 6 8 10 13 15 13 14 14 14 13 10 11 12 13 15 14 13 10 12 11 10 9 9 8
8 12 17 10 9 16 17 12 8 8 6 8 7 7 6 8 6 9 7 6 7 8 11 15 11 8 12 14 13 11 9 11 12 13 11 9 12 9 11 11 11 10 9 6
11 8 6 8 8 6 6 8 8 10 9 7 7 6 10 10 8 7 8 6 6 5 13 14 12 7 14 13 13 14 8 10 11 11 11 11 13 11 10 10 9 9 9 8
10 13 17 14 9 6 6 9 10 12 9 7 9 9 10 10 8 9 7 7 4 6 12 15 14 7 9 12 12 12 10 9 9 11 11 10 9 9 9 10 9 8 9 8
11 15 10 13 12 12 11 11 13 11 8 10 9 12 10 11 11 10 7 5 3 9 11 13 11 9 6 9 10 11 8 4 7 8 11 10 10 10 10 10 11 11 10 10
11 14 11 13 8 10 10 13 11 9 6 8 8 9 6 10 9 6 6 3 8 8 8 8 8 9 7 7 9 10 5 3 6 6 7 8 9 7 10 9 14 12 13 12
14 15 15 14 12 8 9 9 7 6 5 7 9 6 6 8 6 6 5 5 7 7 6 4 8 9 6 6 8 9 8 4 3 5 6 7 7 9 9 3 12 12 12 14
12 12 9 7 6 12 12 11 10 6 3 3 5 4 4 7 5 5 7 5 4 7 5 3 7 8 6 8 7 8 7 2 2 4 5 6 6 6 7 9 7 4 6 7
14 9 9 11 9 9 9 9 9 7 6 7 4 6 4 7 7 7 3 3 5 8 1 3 6 7 8 8 8 7 5 3 2 2 3 4 5 5 6 6 6 6 4 8
14 10 6 7 7 8 9 9 8 9 7 8 9 7 8 9 6 4 1 1 3 3 4 5 6 7 8 8 8 6 0 3 3 3 4 5 5 6 6 6 7 6 5 4
6 10 13 13 11 12 8 7 7 10 12 11 11 9 8 6 8 4 2 1 2 3 4 5 8 9 8 8 8 2 1 1 5 5 5 4 4 5 5 6 7 8 6 4
5 7 7 9 12 13 13 8 8 9 10 10 10 9 5 4 5 3 2 3 1 3 4 6 9 7 8 7 5 5 6 6 7 8 7 9 8 8 8 8 8 8 6 8
4 7 8 9 7 9 11 11 10 10 11 7 6 4 4 4 3 3 3 4 5 3 6 8 10 7 8 7 6 6 8 9 9 8 9 10 10 9 8 8 8 8 7 7
8 6 7 8 8 6 9 8 10 10 6 8 4 4 4 5 5 3 4 6 4 3 5 7 7 7 7 9 9 8 9 10 10 9 9 9 9 9 9 12 10 9 8 8
8 7 8 8 9 7 5 7 8 7 7 7 4 4 4 4 5 6 5 5 8 6 6 8 7 5 6 7 9 9 10 10 10 9 9 9 10 9 9 9 9 8 8 8
6 6 8 7 7 5 6 7 7 6 7 7 7 5 4 5 5 7 8 6 5 8 6 6 6 10 9 13 9 10 11 11 10 9 9 9 9 9 8 8 8 7 7 7
6 6 7 5 5 4 4 6 6 6 7 7 6 6 6 5 5 4 5 10 6 9 7 7 12 15 15 10 10 11 12 12 10 9 9 8 8 8 7 7 7 7 6 6
4 5 5 4 4 4 5 6 6 7 6 6 7 7 5 4 6 6 6 7 10 12 11 11 13 16 14 9 10 11 10 10 9 8 9 10 7 7 7 6 6 5 4 5
5 5 5 5 4 3 4 4 4 5 5 6 7 8 8 7 5 4 5 5 12 10 9 14 16 15 10 9 9 9 8 8 7 7 7 6 5 5 4 4 4 3 3 3
5 4 4 6 5 4 3 4 4 4 3 5 5 5 6 5 6 6 6 8 8 10 8 7 8 8 8 8 8 7 7 7 7 6 6 5 3 3 2 2 2 3 2 1
4 6 3 3 4 5 5 5 4 5 5 4 4 5 5 5 7 7 8 7 7 7 7 6 7 8 6 6 6 5 5 4 5 4 3 3 2 2 2 2 2 2 2 2
Wind_Direction
257 277 285 283 280 282 259 248 227 277 288 289 290 286 301 330 338 338 341 345 343 333 329 326 320 321 317 309 293 249 209 186 184 173 152 152 156 152 149 154 153 148 150 153
268 263 269 268 261 260 261 266 259 273 275 307 307 303 324 325 320 320 324 345 325 321 321 320 318 314 311 304 291 266 216 200 178 162 159 168 169 166 161 160 159 161 164 162
257 249 284 301 228 245 246 247 219 264 269 268 271 265 251 264 278 290 301 308 313 314 312 312 311 306 304 300 289 260 230 202 184 180 176 175 169 162 164 163 160 163 161 161
255 59 247 240 222 240 247 249 245 264 277 280 261 228 219 230 256 275 269 275 303 304 306 308 304 302 296 290 273 258 235 209 189 183 180 172 171 173 163 163 167 167 170 170
234 217 255 275 250 241 240 258 258 264 274 284 286 282 258 269 237 226 241 264 268 287 294 299 307 304 298 295 282 264 238 214 196 185 181 176 182 178 169 163 164 171 171 171
235 238 244 253 254 234 251 268 250 244 254 267 262 276 252 254 271 282 266 249 269 287 299 302 308 308 303 296 285 269 240 220 201 189 188 185 187 179 174 169 169 164 169 182
234 244 246 253 262 295 260 252 248 262 271 270 258 211 225 240 271 241 245 263 264 294 293 303 311 305 297 297 283 274 236 218 200 195 189 192 183 175 167 163 157 168 175 175
230 242 252 239 266 223 243 265 258 255 260 257 269 284 269 264 253 263 267 279 282 298 302 312 308 299 301 296 295 277 228 215 202 191 186 173 171 167 163 163 165 170 170 169
198 207 218 231 197 243 192 225 252 255 253 259 271 274 268 273 284 274 284 282 283 286 306 315 307 304 306 306 310 301 227 213 200 185 184 171 169 171 165 168 175 175 178 182
270 260 256 255 279 245 236 237 248 249 238 264 261 262 267 281 278 280 270 288 270 304 305 309 309 300 297 310 313 304 255 207 189 182 176 172 172 171 173 178 180 177 180 183
245 258 276 274 260 267 260 253 244 242 217 243 252 255 254 273 278 278 271 279 273 298 295 301 303 300 305 314 318 308 276 195 175 184 179 174 182 178 184 191 185 177 185 179
252 254 240 257 254 241 244 249 243 236 235 239 224 244 264 271 274 257 268 254 294 286 283 295 300 301 311 311 320 311 280 196 173 175 179 177 174 158 191 173 186 190 181 177
258 264 265 267 270 265 259 261 257 214 220 256 269 225 250 261 250 258 259 273 267 273 268 291 298 299 306 314 322 313 308 214 171 162 171 171 171 166 162 127 176 185 172 171
26 356 308 13 341 342 6 3 356 347 340 295 294 293 253 251 262 243 259 256 288 277 274 305 302 299 323 322 310 308 312 285 162 157 161 167 171 163 158 160 158 145 169 144
358 347 293 302 324 352 7 1 351 336 327 316 294 279 291 276 266 258 263 317 302 271 285 330 307 303 323 318 304 300 319 336 31 110 115 137 140 139 134 146 154 148 124 174
323 315 350 353 333 339 343 335 327 315 310 302 295 292 284 275 261 257 184 346 299 319 349 323 308 310 312 310 296 291 278 342 72 71 87 100 110 118 118 117 117 126 122 121
344 338 338 327 328 317 304 291 269 284 295 292 284 285 284 292 281 219 166 218 258 29 350 332 312 303 317 300 289 277 104 93 88 83 73 75 91 103 108 110 102 89 71 78
241 275 280 267 288 301 305 291 284 283 282 273 289 292 304 316 331 30 9 310 292 128 19 332 305 330 323 313 349 54 64 63 64 67 67 65 63 62 66 73 77 82 69 51
286 285 278 281 285 288 292 294 298 298 291 297 313 343 14 6 351 356 3 28 21 7 351 323 333 358 340 19 44 63 70 73 70 69 71 73 69 67 71 73 74 70 69 66
301 300 296 302 303 277 296 308 311 306 319 330 349 24 32 10 0 47 68 58 8 337 318 345 360 6 7 36 55 70 74 73 76 74 74 76 76 76 74 70 73 69 64 62
304 303 305 304 307 306 327 326 323 339 354 4 27 42 41 17 11 19 44 38 357 7 23 23 22 20 40 53 62 69 72 73 70 72 73 76 78 69 69 70 67 63 62 59
307 309 305 303 314 324 350 350 354 6 17 16 16 23 41 38 48 63 42 18 7 27 39 34 36 50 60 63 63 67 68 69 67 67 67 66 71 72 66 66 69 63 60 58
304 293 303 322 328 334 6 8 12 26 34 24 26 42 47 42 32 43 45 360 28 43 48 55 58 58 62 64 67 68 67 67 68 68 67 66 67 70 68 66 64 62 59 55
293 313 321 332 351 19 27 11 24 28 27 25 29 29 18 53 50 32 34 44 47 51 53 52 57 59 64 62 63 64 64 65 66 67 69 67 62 65 66 63 63 51 54 54
313 326 358 357 29 31 28 17 26 29 23 36 36 35 38 40 60 26 30 39 45 52 51 47 54 57 58 59 63 64 65 65 63 68 65 64 59 58 57 64 72 68 57 49
358 9 19 22 16 22 33 34 39 24 40 48 39 31 33 37 46 47 46 48 50 51 48 43 46 55 58 60 61 62 63 63 59 59 63 61 62 60 59 55 62 67 64 6
19 20 36 44 34 37 40 40 52 41 23 36 59 20 30 39 42 47 45 44 47 48 47 44 41 47 54 57 57 53 59 64 59 67 65 73 60 57 33 20 10 357 356 351